�������l�o���
Date,Time,MP-1(��Sv/h),MP-2(��Sv/h),MP-3(��Sv/h),MP-4(��Sv/h),MP-5(��Sv/h),MP-6(��Sv/h),MP-7(��Sv/h),MP-8(��Sv/h),����,����(m/s),���J
2018/08/02,00:00,0.922,1.286,0.903,1.601,1.170,0.480,0.844,0.796,���k��,5.4,��
2018/08/02,00:10,0.921,1.285,0.904,1.599,1.172,0.482,0.847,0.797,���k��,6.2,��
2018/08/02,00:20,0.922,1.286,0.904,1.601,1.173,0.481,0.846,0.796,���k��,4.6,��
2018/08/02,00:30,0.923,1.283,0.904,1.601,1.172,0.481,0.846,0.798,���k��,4.3,��
2018/08/02,00:40,0.923,1.283,0.903,1.599,1.171,0.481,0.846,0.797,���k��,3.7,��
2018/08/02,00:50,0.920,1.285,0.904,1.599,1.170,0.480,0.847,0.797,�k��,2.8,��
2018/08/02,01:00,0.922,1.287,0.906,1.602,1.168,0.482,0.847,0.796,�k��,3.1,��
2018/08/02,01:10,0.920,1.286,0.904,1.602,1.173,0.479,0.846,0.796,�k��,3.6,��
2018/08/02,01:20,0.921,1.286,0.904,1.605,1.171,0.480,0.847,0.797,�k��,3.2,��
2018/08/02,01:30,0.920,1.283,0.905,1.603,1.172,0.482,0.846,0.798,�k��,5.9,��
2018/08/02,01:40,0.920,1.285,0.904,1.604,1.172,0.482,0.846,0.799,�k��,4.4,��
2018/08/02,01:50,0.920,1.286,0.903,1.601,1.171,0.481,0.846,0.799,�k��,3.7,��
2018/08/02,02:00,0.921,1.285,0.903,1.603,1.170,0.481,0.845,0.796,�k�k��,3.8,��
2018/08/02,02:10,0.921,1.284,0.904,1.603,1.174,0.482,0.846,0.798,�k�k��,4.3,��
2018/08/02,02:20,0.921,1.285,0.904,1.604,1.175,0.481,0.846,0.798,�k�k��,4.7,��
2018/08/02,02:30,0.920,1.284,0.901,1.604,1.170,0.483,0.846,0.798,�k�k��,3.2,��
2018/08/02,02:40,0.920,1.284,0.904,1.600,1.172,0.481,0.846,0.799,�k�k��,3.5,��
2018/08/02,02:50,0.922,1.288,0.905,1.602,1.170,0.481,0.846,0.799,�k�k��,2.6,��
2018/08/02,03:00,0.920,1.285,0.903,1.604,1.172,0.481,0.847,0.797,�k,2.3,��
2018/08/02,03:10,0.919,1.285,0.905,1.602,1.170,0.482,0.846,0.798,�k,2.2,��
2018/08/02,03:20,0.922,1.286,0.904,1.600,1.169,0.481,0.845,0.799,�k,2.0,��
2018/08/02,03:30,0.921,1.285,0.903,1.601,1.167,0.481,0.847,0.797,�k,2.2,��
2018/08/02,03:40,0.921,1.284,0.904,1.602,1.170,0.480,0.846,0.797,�k�k��,2.0,��
2018/08/02,03:50,0.920,1.283,0.905,1.603,1.170,0.482,0.846,0.798,�k�k��,1.7,��
2018/08/02,04:00,0.921,1.284,0.905,1.604,1.171,0.481,0.845,0.798,�k,1.5,��
2018/08/02,04:10,0.919,1.285,0.904,1.603,1.171,0.481,0.846,0.797,�k�k��,1.2,��
2018/08/02,04:20,0.919,1.286,0.904,1.602,1.172,0.480,0.847,0.797,�k�k��,1.4,��
2018/08/02,04:30,0.919,1.284,0.902,1.603,1.168,0.481,0.845,0.799,�k,1.2,��
2018/08/02,04:40,0.922,1.284,0.905,1.601,1.169,0.480,0.846,0.799,���k��,0.9,��
2018/08/02,04:50,0.920,1.284,0.903,1.602,1.170,0.480,0.845,0.797,�k�k��,1.1,��
2018/08/02,05:00,0.919,1.285,0.903,1.604,1.170,0.481,0.846,0.799,�k,1.2,��
2018/08/02,05:10,0.920,1.286,0.903,1.604,1.169,0.480,0.846,0.797,�k��,1.2,��
2018/08/02,05:20,0.921,1.285,0.902,1.601,1.171,0.480,0.845,0.799,��쐼,0.9,��
2018/08/02,05:30,0.921,1.287,0.901,1.602,1.172,0.479,0.846,0.798,��,0.6,��
2018/08/02,05:40,0.921,1.287,0.901,1.601,1.169,0.481,0.845,0.797,-,CALM,��
2018/08/02,05:50,0.920,1.286,0.903,1.602,1.171,0.479,0.847,0.797,�k,0.8,��
2018/08/02,06:00,0.918,1.285,0.903,1.601,1.171,0.482,0.846,0.797,�k��,0.6,��
2018/08/02,06:10,0.921,1.287,0.905,1.603,1.169,0.480,0.846,0.798,-,CALM,��
2018/08/02,06:20,0.921,1.283,0.904,1.604,1.170,0.480,0.846,0.798,-,CALM,��
2018/08/02,06:30,0.920,1.284,0.903,1.599,1.167,0.481,0.846,0.797,���k��,1.2,��
2018/08/02,06:40,0.922,1.283,0.903,1.603,1.171,0.482,0.847,0.796,���k��,1.5,��
2018/08/02,06:50,0.924,1.282,0.903,1.604,1.172,0.480,0.848,0.799,���k��,1.2,��
2018/08/02,07:00,0.921,1.281,0.904,1.602,1.170,0.481,0.847,0.797,��쐼,1.2,��
2018/08/02,07:10,0.919,1.282,0.904,1.601,1.172,0.479,0.847,0.796,��,0.9,��
2018/08/02,07:20,0.923,1.282,0.902,1.599,1.170,0.481,0.846,0.796,�쓌,0.6,��
2018/08/02,07:30,0.921,1.285,0.903,1.604,1.171,0.481,0.847,0.797,��,0.9,��
2018/08/02,07:40,0.921,1.283,0.901,1.602,1.167,0.480,0.847,0.798,��,0.6,��
2018/08/02,07:50,0.920,1.281,0.900,1.602,1.171,0.480,0.849,0.798,��쓌,0.6,��
2018/08/02,08:00,0.923,1.284,0.900,1.602,1.168,0.479,0.847,0.800,��,0.9,��
2018/08/02,08:10,0.919,1.282,0.905,1.602,1.170,0.480,0.848,0.800,��쓌,1.1,��
2018/08/02,08:20,0.921,1.282,0.902,1.602,1.168,0.480,0.847,0.798,�쓌,1.1,��
2018/08/02,08:30,0.921,1.282,0.901,1.600,1.170,0.481,0.849,0.798,���쓌,0.9,��
2018/08/02,08:40,0.924,1.283,0.902,1.601,1.170,0.479,0.850,0.795,��,0.8,��
2018/08/02,08:50,0.923,1.283,0.902,1.604,1.172,0.482,0.849,0.796,���쓌,1.5,��
2018/08/02,09:00,0.920,1.284,0.903,1.601,1.172,0.481,0.851,0.795,�쓌,1.4,��
2018/08/02,09:10,0.915,1.281,0.902,1.602,1.172,0.479,0.849,0.798,��쓌,0.8,��
2018/08/02,09:20,0.915,1.282,0.903,1.601,1.173,0.480,0.849,0.797,�쓌,2.0,��
2018/08/02,09:30,0.913,1.281,0.902,1.604,1.173,0.481,0.850,0.797,���쓌,2.3,��
2018/08/02,09:40,0.910,1.283,0.903,1.603,1.173,0.481,0.848,0.795,�쓌,2.6,��
2018/08/02,09:50,0.913,1.284,0.903,1.606,1.171,0.479,0.847,0.797,���쓌,3.2,��
2018/08/02,10:00,0.910,1.284,0.903,1.606,1.173,0.480,0.846,0.797,���쓌,2.6,��
2018/08/02,10:10,0.911,1.284,0.903,1.605,1.172,0.480,0.845,0.797,���쓌,2.3,��
2018/08/02,10:20,0.914,1.285,0.901,1.604,1.174,0.478,0.846,0.797,���쓌,2.3,��
2018/08/02,10:30,0.914,1.285,0.904,1.604,1.175,0.479,0.845,0.798,���쓌,2.3,��
2018/08/02,10:40,0.914,1.284,0.902,1.603,1.174,0.479,0.847,0.797,���쓌,3.0,��
2018/08/02,10:50,0.915,1.285,0.905,1.607,1.177,0.478,0.847,0.798,�쓌,3.0,��
2018/08/02,11:00,0.917,1.286,0.905,1.605,1.177,0.479,0.847,0.797,�쓌,2.3,��
2018/08/02,11:10,0.916,1.287,0.903,1.604,1.176,0.479,0.847,0.797,���쓌,3.4,��
2018/08/02,11:20,0.917,1.287,0.907,1.609,1.175,0.480,0.846,0.796,���쓌,2.6,��
2018/08/02,11:30,0.916,1.288,0.906,1.607,1.177,0.479,0.847,0.797,���쓌,3.3,��
2018/08/02,11:40,0.914,1.286,0.904,1.606,1.175,0.479,0.847,0.797,�쓌,2.6,��
2018/08/02,11:50,0.916,1.286,0.905,1.602,1.176,0.477,0.848,0.798,�쓌,3.1,��
2018/08/02,12:00,0.913,1.289,0.904,1.605,1.180,0.480,0.847,0.799,�쓌,3.2,��
2018/08/02,12:10,0.914,1.290,0.905,1.605,1.176,0.478,0.848,0.799,�쓌,4.3,��
2018/08/02,12:20,0.912,1.288,0.905,1.603,1.178,0.481,0.847,0.798,�쓌,3.8,��
2018/08/02,12:30,0.911,1.290,0.905,1.605,1.177,0.479,0.847,0.796,��쓌,4.2,��
2018/08/02,12:40,0.909,1.284,0.906,1.603,1.177,0.479,0.847,0.798,��쓌,3.6,��
2018/08/02,12:50,0.908,1.288,0.908,1.610,1.178,0.479,0.848,0.798,�쓌,4.7,��
2018/08/02,13:00,0.908,1.287,0.906,1.604,1.180,0.479,0.851,0.798,�쓌,5.3,��
2018/08/02,13:10,0.906,1.284,0.907,1.608,1.176,0.480,0.848,0.797,��쓌,4.9,��
2018/08/02,13:20,0.904,1.286,0.907,1.606,1.180,0.480,0.846,0.796,��쓌,5.0,��
2018/08/02,13:30,0.903,1.282,0.908,1.608,1.179,0.482,0.847,0.799,��쓌,5.5,��
2018/08/02,13:40,0.903,1.282,0.905,1.608,1.180,0.481,0.848,0.800,��쓌,5.9,��
2018/08/02,13:50,0.904,1.284,0.904,1.608,1.179,0.480,0.850,0.799,��쓌,5.7,��
2018/08/02,14:00,0.902,1.285,0.905,1.609,1.178,0.482,0.850,0.801,��쓌,5.1,��
2018/08/02,14:10,0.905,1.281,0.905,1.610,1.178,0.480,0.850,0.799,��쓌,4.6,��
2018/08/02,14:20,0.903,1.288,0.906,1.609,1.178,0.481,0.849,0.800,��쓌,5.8,��
2018/08/02,14:30,0.902,1.283,0.906,1.609,1.183,0.481,0.849,0.801,��쓌,5.1,��
2018/08/02,14:40,0.904,1.287,0.908,1.606,1.179,0.480,0.850,0.800,��쓌,5.8,��
2018/08/02,14:50,0.904,1.288,0.907,1.606,1.182,0.482,0.853,0.800,��쓌,6.5,��
2018/08/02,15:00,0.903,1.285,0.907,1.608,1.180,0.482,0.850,0.801,��쓌,6.1,��
2018/08/02,15:10,0.904,1.285,0.908,1.608,1.183,0.483,0.852,0.801,��쓌,5.6,��
2018/08/02,15:20,0.904,1.289,0.907,1.605,1.178,0.481,0.850,0.800,��쓌,6.0,��
2018/08/02,15:30,0.905,1.287,0.908,1.604,1.183,0.481,0.850,0.799,�쓌,6.2,��
2018/08/02,15:40,0.902,1.285,0.907,1.608,1.183,0.481,0.850,0.800,��쓌,7.2,��
2018/08/02,15:50,0.901,1.285,0.904,1.609,1.181,0.481,0.850,0.800,��쓌,6.6,��
2018/08/02,16:00,0.904,1.287,0.907,1.606,1.182,0.479,0.848,0.801,��쓌,7.4,��
2018/08/02,16:10,0.903,1.289,0.906,1.609,1.181,0.479,0.849,0.800,��쓌,6.2,��
2018/08/02,16:20,0.901,1.288,0.908,1.608,1.179,0.482,0.849,0.798,��쓌,6.0,��
2018/08/02,16:30,0.902,1.288,0.907,1.608,1.181,0.478,0.849,0.801,��쓌,6.6,��
2018/08/02,16:40,0.903,1.287,0.907,1.611,1.179,0.481,0.850,0.799,��쓌,5.8,��
2018/08/02,16:50,0.900,1.287,0.905,1.612,1.184,0.480,0.848,0.800,��,6.1,��
2018/08/02,17:00,0.901,1.289,0.905,1.607,1.178,0.480,0.847,0.799,��쓌,6.1,��
2018/08/02,17:10,0.900,1.289,0.905,1.609,1.180,0.479,0.850,0.799,��쓌,5.6,��
2018/08/02,17:20,0.903,1.288,0.906,1.608,1.179,0.479,0.849,0.800,��쓌,6.4,��
2018/08/02,17:30,0.902,1.291,0.906,1.609,1.181,0.480,0.851,0.800,��,6.4,��
2018/08/02,17:40,0.903,1.289,0.907,1.607,1.179,0.479,0.848,0.798,��,5.9,��
2018/08/02,17:50,0.903,1.290,0.905,1.610,1.179,0.480,0.846,0.799,��,6.5,��
2018/08/02,18:00,0.903,1.290,0.906,1.610,1.181,0.481,0.849,0.798,��,6.2,��
2018/08/02,18:10,0.902,1.290,0.905,1.610,1.180,0.481,0.848,0.798,��,6.4,��
2018/08/02,18:20,0.904,1.289,0.907,1.612,1.179,0.481,0.850,0.799,��,6.6,��
2018/08/02,18:30,0.902,1.286,0.907,1.609,1.177,0.480,0.848,0.800,��,6.7,��
2018/08/02,18:40,0.904,1.290,0.906,1.608,1.178,0.480,0.848,0.799,��,6.6,��
2018/08/02,18:50,0.902,1.286,0.906,1.609,1.176,0.479,0.848,0.798,��,6.5,��
2018/08/02,19:00,0.904,1.291,0.909,1.608,1.179,0.479,0.848,0.799,��,6.3,��
2018/08/02,19:10,0.904,1.288,0.905,1.609,1.178,0.479,0.848,0.797,��,6.1,��
2018/08/02,19:20,0.902,1.291,0.905,1.610,1.180,0.480,0.848,0.800,��,6.4,��
2018/08/02,19:30,0.900,1.289,0.907,1.609,1.181,0.480,0.846,0.799,��,6.5,��
2018/08/02,19:40,0.904,1.289,0.906,1.610,1.181,0.480,0.850,0.799,��,6.0,��
2018/08/02,19:50,0.902,1.288,0.906,1.610,1.181,0.481,0.848,0.800,��,5.9,��
2018/08/02,20:00,0.902,1.289,0.908,1.610,1.181,0.480,0.848,0.798,��,5.6,��
2018/08/02,20:10,0.902,1.288,0.909,1.610,1.182,0.480,0.847,0.799,��,5.1,��
2018/08/02,20:20,0.902,1.288,0.908,1.610,1.181,0.482,0.848,0.798,��,5.2,��
2018/08/02,20:30,0.900,1.289,0.906,1.609,1.179,0.480,0.847,0.799,��,5.9,��
2018/08/02,20:40,0.903,1.289,0.908,1.610,1.178,0.482,0.849,0.797,��,5.5,��
2018/08/02,20:50,0.904,1.290,0.906,1.613,1.180,0.480,0.846,0.800,��,6.0,��
2018/08/02,21:00,0.903,1.289,0.907,1.611,1.180,0.481,0.847,0.799,��,5.8,��
2018/08/02,21:10,0.902,1.288,0.908,1.608,1.179,0.482,0.849,0.799,��,5.6,��
2018/08/02,21:20,0.902,1.287,0.906,1.613,1.180,0.480,0.849,0.799,��,5.8,��
2018/08/02,21:30,0.902,1.290,0.907,1.612,1.180,0.481,0.849,0.797,��,3.1,��
2018/08/02,21:40,0.903,1.286,0.908,1.614,1.181,0.481,0.848,0.798,�k�k��,0.9,��
2018/08/02,21:50,0.902,1.287,0.906,1.614,1.179,0.482,0.850,0.798,-,CALM,��
2018/08/02,22:00,0.902,1.288,0.907,1.612,1.179,0.480,0.848,0.799,��,0.8,��
2018/08/02,22:10,0.903,1.287,0.907,1.610,1.178,0.482,0.847,0.798,�쓌,1.1,��
2018/08/02,22:20,0.900,1.291,0.909,1.610,1.180,0.479,0.846,0.800,��쓌,1.5,��
2018/08/02,22:30,0.901,1.289,0.909,1.611,1.177,0.482,0.848,0.799,-,CALM,��
2018/08/02,22:40,0.901,1.288,0.907,1.610,1.181,0.482,0.848,0.799,��쓌,1.1,��
2018/08/02,22:50,0.900,1.288,0.908,1.610,1.179,0.482,0.849,0.800,-,CALM,��
2018/08/02,23:00,0.902,1.289,0.908,1.610,1.179,0.482,0.848,0.798,���k��,0.6,��
2018/08/02,23:10,0.903,1.288,0.907,1.612,1.180,0.482,0.849,0.798,���k��,1.4,��
2018/08/02,23:20,0.902,1.288,0.905,1.614,1.179,0.482,0.849,0.799,�k��,2.0,��
2018/08/02,23:30,0.902,1.291,0.908,1.612,1.180,0.483,0.849,0.799,�k��,3.2,��
2018/08/02,23:40,0.903,1.290,0.907,1.613,1.180,0.482,0.849,0.798,�k�k��,4.3,��
2018/08/02,23:50,0.902,1.290,0.909,1.614,1.180,0.481,0.850,0.801,�k�k��,3.9,��
